Home   Weather   Ensenada   Past weeks
Flag for Mexico

Past Weather in Ensenada, Baja California, Mexico — Yesterday and Last 2 Weeks

Now
95 °F

Sunny.


Feels Like: 90 °F
Forecast: 87 / 65 °F
Wind: 6 mph from East

Location: Tijuana International Airport

Current Time: Oct 22, 2019 at 12:32:53 pm

Latest Report: Oct 22, 2019 at 11:48 am


Visibility: 10 mi

Pressure: 30.06 "Hg

Humidity: 8%

Dew Point: 25 °F

Location of EnsenadaLocation

Past Weather in Ensenada — Graph

°F

Ensenada Temperature Yesterday

Maximum temperature yesterday: 91 °F (at 11:40 am)
Minimum temperature yesterday: 59 °F (at 1:50 am)
Average temperature yesterday: 75 °F

High & Low Weather Summary for the Past Weeks

 TemperatureHumidityPressure
High91 °F (Oct 21, 11:40 am)100% (Oct 8, 2:41 am)30.10 "Hg (Oct 8, 2:41 am)
Low52 °F (Oct 20, 4:43 am)5% (Oct 11, 10:44 am)29.83 "Hg (Oct 17, 3:42 am)
Average67 °F65%29.92 "Hg
* Reported Oct 7 10:41 am — Oct 22 10:45 am, Ensenada. Weather by CustomWeather, © 2019

Note: Actual official high and low records may vary slightly from our data, if they occured in-between our weather recording intervals... More about our weather records

Advertising

Ensenada Weather History for the Previous 24 Hours

Scroll right to see more
 ConditionsComfort  
Time TempWeatherWind HumidityBarometerVisibility
10:45 am
Tue, Oct 22
91 °FSunny.12 mph10%30.05 "Hg10 mi
9:46 am86 °FSunny.No wind11%30.10 "Hg10 mi
8:40 am81 °FSunny.6 mph15%30.09 "Hg10 mi
7:49 am70 °FSunny.No wind23%30.03 "Hg10 mi
6:40 am66 °FClear.No wind24%30.07 "Hg10 mi
6:35 am66 °FClear.No wind24%30.06 "Hg10 mi
4:44 am61 °FClear.No wind31%30.05 "Hg10 mi
3:42 am68 °FClear.No wind23%30.06 "Hg10 mi
2:41 am68 °FClear.No wind23%30.08 "Hg10 mi
1:44 am72 °FClear.No wind20%30.08 "Hg10 mi
12:41 am68 °FClear.3 mph30%30.07 "Hg10 mi
11:41 pm
Mon, Oct 21
72 °FClear.No wind27%30.07 "Hg10 mi
10:42 pm68 °FClear.No wind33%30.08 "Hg10 mi
9:43 pm68 °FClear.No wind30%30.05 "Hg10 mi
8:41 pm72 °FClear.No wind23%30.05 "Hg8 mi
7:42 pm77 °FClear.6 mph18%30.02 "Hg8 mi
6:48 pm79 °FClear.7 mph18%30.02 "Hg8 mi
5:40 pm84 °FSunny.8 mph19%29.99 "Hg10 mi
4:44 pm88 °FSunny.10 mph13%29.98 "Hg10 mi
3:44 pm88 °FSunny.13 mph13%29.99 "Hg10 mi
2:44 pm88 °FSunny.16 mph13%29.98 "Hg10 mi
1:44 pm90 °FSunny.13 mph12%29.97 "Hg10 mi
12:40 pm90 °FSunny.14 mph12%30.01 "Hg10 mi
Weather by CustomWeather, © 2019

See weather overview